TimeCDT,TemperatureF,Dew PointF,Humidity,Sea Level PressureIn,VisibilityMPH,Wind Direction,Wind SpeedMPH,Gust SpeedMPH,PrecipitationIn,Events,Conditions,WindDirDegrees,DateUTC
12:15 AM,70.2,59.0,68,29.73,10.0,South,15.0,-,N/A,,Clear,190,2013-04-30 05:15:00
12:35 AM,69.8,59.0,68,29.73,10.0,South,13.8,19.6,N/A,,Clear,180,2013-04-30 05:35:00
12:55 AM,69.8,59.0,68,29.73,10.0,South,13.8,-,N/A,,Clear,180,2013-04-30 05:55:00
1:15 AM,69.3,59.0,70,29.73,10.0,South,13.8,-,N/A,,Clear,190,2013-04-30 06:15:00
1:35 AM,69.3,59.2,70,29.74,10.0,South,12.7,-,N/A,,Clear,190,2013-04-30 06:35:00
1:55 AM,69.8,59.2,69,29.74,10.0,SSW,15.0,-,N/A,,Clear,200,2013-04-30 06:55:00
2:15 AM,70.0,59.5,69,29.74,10.0,South,15.0,19.6,N/A,,Clear,190,2013-04-30 07:15:00
2:35 AM,70.5,59.9,69,29.74,10.0,SSW,15.0,21.9,N/A,,Clear,200,2013-04-30 07:35:00
2:55 AM,70.2,59.9,70,29.74,10.0,South,16.1,-,N/A,,Clear,190,2013-04-30 07:55:00
3:15 AM,69.6,59.9,71,29.74,10.0,South,15.0,19.6,N/A,,Clear,190,2013-04-30 08:15:00
3:35 AM,69.8,60.8,73,29.75,10.0,South,15.0,-,N/A,,Clear,190,2013-04-30 08:35:00
3:55 AM,68.5,60.1,74,29.75,10.0,South,12.7,-,N/A,,Clear,190,2013-04-30 08:55:00
4:15 AM,68.0,60.1,76,29.76,10.0,South,13.8,-,N/A,,Clear,190,2013-04-30 09:15:00
4:35 AM,67.3,60.1,78,29.76,10.0,South,11.5,-,N/A,,Clear,180,2013-04-30 09:35:00
4:55 AM,66.9,60.1,79,29.77,10.0,South,11.5,-,N/A,,Clear,180,2013-04-30 09:55:00
5:15 AM,65.8,59.9,81,29.77,10.0,South,10.4,-,N/A,,Clear,180,2013-04-30 10:15:00
5:35 AM,64.8,59.9,84,29.78,10.0,SSE,8.1,-,N/A,,Clear,160,2013-04-30 10:35:00
5:55 AM,63.9,59.9,87,29.79,10.0,SSE,8.1,-,N/A,,Clear,160,2013-04-30 10:55:00
6:15 AM,62.8,59.4,89,29.80,10.0,SSE,5.8,-,N/A,,Clear,150,2013-04-30 11:15:00
6:35 AM,61.9,59.2,91,29.81,10.0,SSE,6.9,-,N/A,,Clear,160,2013-04-30 11:35:00
6:55 AM,62.8,60.1,91,29.82,10.0,South,5.8,-,N/A,,Clear,170,2013-04-30 11:55:00
7:15 AM,63.9,60.8,90,29.82,10.0,South,6.9,-,N/A,,Clear,170,2013-04-30 12:15:00
7:35 AM,65.5,61.3,86,29.83,10.0,South,5.8,-,N/A,,Clear,180,2013-04-30 12:35:00
7:55 AM,67.5,61.7,82,29.83,10.0,South,8.1,-,N/A,,Clear,180,2013-04-30 12:55:00
8:15 AM,69.1,61.7,77,29.83,10.0,South,10.4,-,N/A,,Clear,180,2013-04-30 13:15:00
8:35 AM,70.7,61.2,72,29.83,10.0,SSW,10.4,-,N/A,,Clear,200,2013-04-30 13:35:00
8:55 AM,74.1,60.3,62,29.83,10.0,SSW,12.7,-,N/A,,Clear,210,2013-04-30 13:55:00
9:15 AM,76.3,58.5,54,29.83,10.0,SW,18.4,25.3,N/A,,Clear,220,2013-04-30 14:15:00
9:35 AM,77.4,57.7,51,29.83,10.0,SW,16.1,23.0,N/A,,Clear,220,2013-04-30 14:35:00
9:55 AM,78.1,56.8,48,29.83,10.0,SW,20.7,26.5,N/A,,Clear,230,2013-04-30 14:55:00
10:15 AM,79.0,56.3,46,29.83,10.0,SW,18.4,-,N/A,,Clear,220,2013-04-30 15:15:00
10:35 AM,79.7,55.2,43,29.83,10.0,SW,16.1,27.6,N/A,,Clear,220,2013-04-30 15:35:00
10:55 AM,80.2,55.4,42,29.83,10.0,SW,16.1,24.2,N/A,,Clear,220,2013-04-30 15:55:00
11:15 AM,81.5,53.6,38,29.83,10.0,SW,20.7,28.8,N/A,,Clear,220,2013-04-30 16:15:00
11:35 AM,82.6,54.5,38,29.83,10.0,SW,17.3,23.0,N/A,,Clear,220,2013-04-30 16:35:00
11:55 AM,82.6,52.5,35,29.83,10.0,SSW,19.6,-,N/A,,Clear,210,2013-04-30 16:55:00
12:15 PM,82.6,53.1,36,29.83,10.0,SW,19.6,27.6,N/A,,Clear,220,2013-04-30 17:15:00
12:35 PM,84.2,54.1,35,29.83,10.0,SW,15.0,-,N/A,,Clear,230,2013-04-30 17:35:00
12:55 PM,84.7,52.9,33,29.82,10.0,SSW,13.8,-,N/A,,Clear,210,2013-04-30 17:55:00
1:15 PM,85.1,52.0,32,29.82,10.0,SSW,20.7,25.3,N/A,,Clear,200,2013-04-30 18:15:00
1:35 PM,85.5,50.5,30,29.82,10.0,SSW,16.1,24.2,N/A,,Clear,210,2013-04-30 18:35:00
1:55 PM,86.9,48.0,26,29.82,10.0,SSW,21.9,29.9,N/A,,Clear,210,2013-04-30 18:55:00
2:15 PM,87.1,49.6,27,29.82,10.0,SSW,16.1,-,N/A,,Clear,210,2013-04-30 19:15:00
2:35 PM,87.3,49.3,27,29.82,10.0,SW,23.0,26.5,N/A,,Clear,220,2013-04-30 19:35:00
2:55 PM,87.4,48.6,26,29.82,10.0,SSW,15.0,-,N/A,,Clear,210,2013-04-30 19:55:00
3:15 PM,88.0,45.1,22,29.81,10.0,SSW,19.6,26.5,N/A,,Clear,210,2013-04-30 20:15:00
3:35 PM,88.3,45.5,23,29.81,10.0,SW,17.3,24.2,N/A,,Clear,220,2013-04-30 20:35:00
3:55 PM,88.7,47.1,24,29.82,10.0,SSW,15.0,25.3,N/A,,Clear,200,2013-04-30 20:55:00
4:15 PM,88.7,46.2,23,29.82,10.0,SSW,16.1,21.9,N/A,,Clear,210,2013-04-30 21:15:00
4:35 PM,88.5,45.7,23,29.82,10.0,SSW,17.3,24.2,N/A,,Clear,200,2013-04-30 21:35:00
4:55 PM,88.9,46.0,23,29.83,10.0,SSW,16.1,19.6,N/A,,Clear,210,2013-04-30 21:55:00
5:15 PM,88.7,46.2,23,29.83,10.0,SSW,17.3,20.7,N/A,,Clear,200,2013-04-30 22:15:00
5:35 PM,88.0,45.9,23,29.83,10.0,South,13.8,20.7,N/A,,Clear,180,2013-04-30 22:35:00
5:55 PM,87.6,44.8,22,29.83,10.0,SSW,13.8,23.0,N/A,,Clear,200,2013-04-30 22:55:00
6:15 PM,86.9,45.3,23,29.84,10.0,SSW,12.7,-,N/A,,Clear,200,2013-04-30 23:15:00
6:35 PM,86.0,46.2,25,29.84,10.0,South,12.7,-,N/A,,Clear,190,2013-04-30 23:35:00
6:55 PM,84.7,47.8,28,29.84,10.0,South,13.8,-,N/A,,Clear,180,2013-04-30 23:55:00
7:15 PM,83.5,47.8,29,29.84,10.0,South,9.2,-,N/A,,Clear,180,2013-05-01 00:15:00
7:35 PM,81.1,50.0,34,29.84,10.0,South,8.1,-,N/A,,Clear,180,2013-05-01 00:35:00
7:55 PM,79.0,50.9,37,29.85,10.0,South,9.2,-,N/A,,Clear,170,2013-05-01 00:55:00
8:15 PM,78.1,53.1,42,29.85,10.0,SSE,11.5,-,N/A,,Clear,160,2013-05-01 01:15:00
8:35 PM,77.4,54.9,46,29.86,10.0,SSE,10.4,-,N/A,,Clear,160,2013-05-01 01:35:00
8:55 PM,76.3,55.6,49,29.87,10.0,SSE,10.4,-,N/A,,Clear,160,2013-05-01 01:55:00
9:15 PM,75.4,56.5,52,29.88,10.0,SSE,12.7,-,N/A,,Clear,160,2013-05-01 02:15:00
9:35 PM,74.8,56.5,53,29.89,10.0,SSE,11.5,-,N/A,,Clear,160,2013-05-01 02:35:00
9:55 PM,74.3,55.9,53,29.90,10.0,South,12.7,-,N/A,,Clear,170,2013-05-01 02:55:00
10:15 PM,73.9,55.2,52,29.90,10.0,South,13.8,-,N/A,,Clear,170,2013-05-01 03:15:00
10:35 PM,73.6,54.9,52,29.91,10.0,South,11.5,-,N/A,,Clear,170,2013-05-01 03:35:00
10:55 PM,72.9,54.9,53,29.92,10.0,South,11.5,18.4,N/A,,Clear,170,2013-05-01 03:55:00
11:15 PM,72.5,55.4,55,29.92,10.0,South,12.7,-,N/A,,Clear,170,2013-05-01 04:15:00
11:35 PM,71.8,55.4,56,29.93,10.0,South,13.8,-,N/A,,Clear,170,2013-05-01 04:35:00
11:55 PM,71.6,55.8,57,29.93,10.0,South,15.0,19.6,N/A,,Clear,170,2013-05-01 04:55:00